Regional Weather Roundup
Issued by NWS

Home | Current Version | Previous Version | Graphics & Text | Print | Product List | Glossary On
Versions: 1 2 3 4 5 6 7 8 9 10 11 12 13 14 15 16 17 18 19 20 21 22 23 24 25 26 27
000
ASUS45 KBOU 220707
RWRCO

WEATHER ROUNDUP FOR COLORADO
NATIONAL WEATHER SERVICE DENVER/BOULDER CO
100 AM MDT SAT JUL 22 2017

NOTE: "FAIR" INDICATES FEW OR NO CLOUDS BELOW 12000 FEET WITH NO
SIGNIFICANT WEATHER AND/OR OBSTRUCTIONS TO VISIBILITY.

COZ001>005-013-030-031-220800-
...NORTHWEST COLORADO...

CITY           SKY/WX    TMP DP  RH WIND       PRES   REMARKS
CRAIG          FAIR      57  53  86 CALM      30.27R
HAYDEN         FAIR      61  46  59 E6        30.28S
MEEKER         FAIR      61  54  77 N3        30.27S
RABBIT EARS PA FAIR      46  43  87 CALM      30.55S
STEAMBOAT SPGS FAIR      54  51  90 CALM      30.32S
WALDEN         FAIR      52  50  93 E6        30.41F
$$

COZ006>008-011-220800-
...WEST CENTRAL VALLEYS...

CITY           SKY/WX    TMP DP  RH WIND       PRES   REMARKS
GRAND JUNCTION FAIR      67  62  84 N12       30.17S
MONTROSE       FAIR      63  58  83 S5        30.26F
EAGLE          MOCLDY    59  57  93 NW7       30.35F
RIFLE          FAIR      65  60  84 W3        30.23F
DELTA          FAIR      70  59  68 NE7       30.22F
NUCLA          FAIR      63  54  72 CALM      30.27F
$$

COZ017>023-064>068-220800-
...SOUTHWEST COLORADO...

CITY           SKY/WX    TMP DP  RH WIND       PRES   REMARKS
DURANGO        FAIR      59  57  93 CALM      30.24S
CORTEZ         FAIR      66  57  72 NW3       30.22S
PAGOSA SPRINGS FAIR      61  50  66 CALM      30.32S
TELLURIDE      CLOUDY    54  53  99 SE3       30.46S
WOLF CREEK PAS NOT AVBL
$$

COZ009-010-012-014-032>034-037-058>063-220800-
...CENTRAL COLORADO...

CITY           SKY/WX    TMP DP  RH WIND       PRES   REMARKS
ASPEN          FAIR      58  54  86 S6        30.40F
BUENA VISTA    FAIR      61  47  60 N14G21    30.40S
COPPER MTN     HAZE      46  41  81 CALM      30.69S VSB 1/4
BERTHOUD PASS  CLOUDY    41  28  60 W21       30.69F
COTTONWOOD PAS FAIR      55  45  67 SW6       30.53S
GUNNISON       FAIR      61  52  72 CALM      30.37F
KREMMLING      FAIR      61  54  77 CALM      30.38F
LEADVILLE      FAIR      49  45  86 N8        30.53F
MONARCH PASS     N/A     46  43  87 E3        30.77S
SALIDA         FAIR      64  48  54 W3        30.44S
SUNLIGHT       DRIZZLE   46  43  87 E10G18    30.59F
WILKERSON PASS FOG       46  45  93 NE9       30.65S VSB 1/2
$$

COZ069>075-220800-
...SAN LUIS VALLEY/SANGRE DE CRISTO MOUNTAINS...

CITY           SKY/WX    TMP DP  RH WIND       PRES   REMARKS
ALAMOSA        CLOUDY    65  49  56 N5        30.30R
DEL NORTE      MOCLDY    63  46  54 W6        30.35S
LA VETA PASS   NOT AVBL
SAGUACHE         N/A    N/A N/A N/A MISG        N/A
$$

COZ035-036-038>040-220800-
...NORTHERN COLORADO FRONT RANGE...

CITY           SKY/WX    TMP DP  RH WIND       PRES   REMARKS
DENVER INTL AP CLOUDY    62  59  90 S14       30.21F
DMNS CITY PARK   N/A     63  61  92 S7        30.23F
AURORA         MOCLDY    61  61 100 S8        30.24F
FRONT RANGE AP FAIR      63  61  94 SW7       30.22F
ERIE MUNI ARPT FAIR      65  59  83 S10       30.19F
BOULDER MUN AP FAIR      66  55  68 S3        30.20F
CENTENNIAL     MOCLDY    61  59  93 SW7       30.26F
BROOMFIELD     FAIR      63  59  88 S10       30.24F
FORT COLLINS   FAIR      63  58  83 S8        30.21R
LONGMONT       FAIR      67  58  72 CALM      30.22R
$$

COZ041-046-047-076>085-087-088-220800-
...PIKES PEAK/PALMER DIVIDE AND SOUTHERN FOOTHILLS...

CITY           SKY/WX    TMP DP  RH WIND       PRES   REMARKS
COLO. SPRINGS  MOCLDY    66  57  72 NW15      30.28S
A. F. ACADEMY  CLOUDY    61  55  81 N9        30.30F
SCHRIEVER AFB  MOCLDY    62  55  75 N21G32    30.24F
CHEYENNE MTN   MOCLDY    64  51  64 NW18      30.26F
ELLICOTT       FAIR     N/A N/A N/A N17G28    30.20F
FALCON           N/A     60  54  79 NW16G22   30.31F
FORT CARSON    MOCLDY    65  56  70 N15G23    30.24F
LIMON          MOCLDY    63  59  87 N16G24    30.18R
MONUMENT HILL  FAIR      55  54  94 NW9       30.35F
CANON CITY     PTCLDY    68  61  77 N7        30.20S
WALSENBURG     FAIR      64  55  72 CALM      30.24R
TRINIDAD       MOCLDY    71  50  47 E5        30.24R
$$

COZ042>045-048>051-090-091-220800-
...NORTHEAST COLORADO...

CITY           SKY/WX    TMP DP  RH WIND       PRES   REMARKS
GREELEY ARPT   FAIR      65  61  87 SE6       30.20R
AKRON          LGT RAIN  64  59  83 N9        30.10F
BURLINGTON     FAIR      71  58  63 NW22G30   30.07F
WRAY           NOT AVBL
YUMA           NOT AVBL
STERLING       RAIN      64  63  94 CALM      30.15F
HOLYOKE        LGT RAIN  68  61  77 W20G28    30.08F
FORT MORGAN    FAIR      64  60  88 N6        30.16F
$$

COZ086-089-092>099-220800-
...SOUTHEAST COLORADO...

CITY           SKY/WX    TMP DP  RH WIND       PRES   REMARKS
PUEBLO         LGT RAIN  72  56  57 N25G36    30.10F
LA JUNTA       FAIR      72  57  59 CALM      30.11R
LAMAR          FAIR      75  56  51 VRB5      30.04R
SPRINGFIELD      N/A     72  54  53 NW7       30.08R
$$




USA.gov is the U.S. government's official web portal to all federal, state and local government web resources and services.